Change the Weather History Date:

Saturday, December 15, 2012

  Actual Average Record
Temperature  
Mean Temperature 73 °F 70 °F  
Max Temperature 79 °F 78 °F 86 °F (2013)
Min Temperature 67 °F 63 °F 35 °F (1944)
Degree Days  
Heating Degree Days 0 1  
Month to date heating degree days 0 11  
Since 1 July heating degree days 1 14  
Cooling Degree Days 8 7  
Month to date cooling degree days 154 110  
Year to date cooling degree days 4594 4482  
Growing Degree Days 22 (Base 50)    
Moisture  
Dew Point 65 °F    
Average Humidity 78    
Maximum Humidity 93    
Minimum Humidity 62    
Precipitation  
Precipitation T in 0.07 in 1.46 in (1918)
Month to date precipitation 0.42 1.04  
Year to date precipitation 86.85 60.90  
Snow  
Snow 0.00 in - - ()
Month to date snowfall 0.0  
Since 1 July snowfall 0.0  
Snow Depth 0.00 in    
Sea Level Pressure  
Sea Level Pressure 30.07 in    
Wind  
Wind Speed 6 mph (NNE)    
Max Wind Speed 20 mph    
Max Gust Speed 25 mph    
Visibility 10 miles    
Events Rain    
T = Trace of Precipitation, MM = Missing Value Source: NWS Daily Summary

Daily Weather History Graph

Daily Weather History Graph

Search for Another Location

Airport or City:

Trip Planner

Search our weather history database for the weather conditions in past years. The results will help you decide how hot, cold, wet, or windy it might be!

Date:

Astronomy

Dec. 15, 2012 Rise Set
Actual Time 7:00 AM EST 5:32 PM EST
Civil Twilight 6:35 AM EST 5:58 PM EST
Nautical Twilight 6:06 AM EST 6:26 PM EST
Astronomical Twilight 5:38 AM EST 6:54 PM EST
Moon 9:01 AM EST (12/15) 8:22 PM EST (12/15)
Length of Visible Light 11h 22m
Length of Day
10h 32m
Waxing Crescent, 8% of the Moon is Illuminated
Dec 15
Waxing Crescent
Dec 20
First Quarter
Dec 28
Full
Jan 4
Last Quarter
Jan 11
New

Hourly Weather History & Observations

Time (EST) Temp. Dew Point Humidity Pressure Visibility Wind Dir Wind Speed Gust Speed Precip Events Conditions
12:53 AM 68.0 °F 64.9 °F 90% 30.07 in 10.0 mi North 3.5 mph - 0.00 in   Overcast
1:53 AM 68.0 °F 64.9 °F 90% 30.05 in 10.0 mi NNW 3.5 mph - N/A   Mostly Cloudy
2:53 AM 66.9 °F 64.9 °F 93% 30.04 in 10.0 mi NNW 4.6 mph - N/A   Mostly Cloudy
3:53 AM 66.9 °F 64.9 °F 93% 30.04 in 9.0 mi NNW 4.6 mph - N/A   Mostly Cloudy
4:53 AM 66.9 °F 64.9 °F 93% 30.04 in 10.0 mi NW 4.6 mph - 0.00 in   Mostly Cloudy
5:53 AM 68.0 °F 66.0 °F 93% 30.06 in 10.0 mi Calm Calm - 0.00 in   Overcast
6:53 AM 68.0 °F 66.0 °F 93% 30.07 in 10.0 mi Variable 3.5 mph - 0.00 in   Mostly Cloudy
7:53 AM 71.1 °F 66.9 °F 87% 30.08 in 10.0 mi NNW 4.6 mph - 0.00 in   Mostly Cloudy
8:53 AM 73.4 °F 66.2 °F 78% 30.10 in 10.0 mi Variable 3.5 mph - N/A   Mostly Cloudy
9:53 AM 75.0 °F 66.9 °F 76% 30.11 in 10.0 mi NE 5.8 mph - N/A   Mostly Cloudy
10:53 AM 75.9 °F 64.9 °F 69% 30.10 in 10.0 mi NE 13.8 mph 19.6 mph N/A   Mostly Cloudy
11:53 AM 78.1 °F 64.9 °F 64% 30.08 in 10.0 mi NE 10.4 mph - N/A   Mostly Cloudy
12:53 PM 75.0 °F 66.0 °F 73% 30.06 in 10.0 mi ENE 10.4 mph - 0.00 in Rain Light Rain
1:53 PM 77.0 °F 64.9 °F 66% 30.04 in 10.0 mi NE 11.5 mph - 0.00 in   Mostly Cloudy
2:53 PM 75.9 °F 64.0 °F 67% 30.04 in 10.0 mi ENE 11.5 mph 21.9 mph 0.00 in   Mostly Cloudy
3:53 PM 71.1 °F 66.0 °F 84% 30.05 in 10.0 mi NE 11.5 mph - 0.00 in   Overcast
4:53 PM 73.9 °F 64.9 °F 73% 30.03 in 10.0 mi East 6.9 mph - N/A   Mostly Cloudy
5:53 PM 73.9 °F 63.0 °F 68% 30.05 in 10.0 mi NE 4.6 mph - N/A   Overcast
6:53 PM 75.0 °F 63.0 °F 66% 30.06 in 10.0 mi ENE 5.8 mph - N/A   Overcast
7:53 PM 72.0 °F 64.9 °F 78% 30.09 in 7.0 mi NE 10.4 mph - 0.00 in Rain Light Rain
8:53 PM 72.0 °F 66.0 °F 81% 30.09 in 10.0 mi NNE 4.6 mph - 0.04 in   Overcast
9:53 PM 71.1 °F 66.9 °F 87% 30.08 in 10.0 mi North 3.5 mph - 0.03 in   Mostly Cloudy
10:53 PM 70.0 °F 66.0 °F 87% 30.06 in 10.0 mi East 3.5 mph - N/A   Scattered Clouds
11:53 PM 70.0 °F 64.9 °F 84% 30.06 in 10.0 mi East 5.8 mph - 0.00 in   Scattered Clouds